QPF
0.00 0.00 0.01 0.01 0.00 0.00 0.00 0.00 0.00 0.00 0.00 0.00 0.00 0.00 0.00 0.00 0.00 0.00 0.00 0.00 0.00 0.00 0.00 0.00 0.00 0.00 0.00 0.00 0.00 0.00 0.00 0.00 0.00 0.00 0.00 0.00 0.00 0.00 0.00 0.00 0.00 0.00 0.00 0.00
0.00 0.00 0.00 0.00 0.00 0.00 0.00 0.00 0.00 0.00 0.00 0.00 0.00 0.00 0.00 0.00 0.00 0.00 0.00 0.00 0.00 0.00 0.00 0.00 0.00 0.00 0.00 0.00 0.00 0.00 0.00 0.00 0.00 0.00 0.00 0.00 0.00 0.00 0.00 0.00 0.00 0.00 0.00 0.00
0.01 0.00 0.00 0.00 0.00 0.00 0.00 0.00 0.00 0.00 0.00 0.00 0.00 0.00 0.00 0.00 0.00 0.00 0.00 0.00 0.00 0.00 0.00 0.00 0.00 0.00 0.00 0.00 0.00 0.00 0.00 0.00 0.00 0.00 0.00 0.00 0.00 0.00 0.00 0.00 0.00 0.00 0.00 0.00
0.01 0.00 0.00 0.00 0.00 0.00 0.00 0.00 0.00 0.00 0.00 0.00 0.00 0.00 0.00 0.00 0.00 0.00 0.00 0.00 0.00 0.00 0.00 0.00 0.00 0.00 0.00 0.00 0.00 0.00 0.00 0.00 0.00 0.00 0.00 0.00 0.00 0.00 0.00 0.00 0.00 0.00 0.00 0.00
0.01 0.01 0.00 0.00 0.00 0.00 0.00 0.00 0.00 0.00 0.00 0.00 0.00 0.00 0.00 0.00 0.00 0.00 0.00 0.00 0.00 0.00 0.00 0.00 0.00 0.00 0.00 0.00 0.00 0.00 0.00 0.00 0.00 0.00 0.00 0.00 0.00 0.00 0.00 0.00 0.00 0.00 0.00 0.00
0.01 0.01 0.00 0.00 0.00 0.00 0.00 0.00 0.00 0.00 0.00 0.00 0.00 0.00 0.00 0.00 0.00 0.00 0.00 0.00 0.00 0.00 0.00 0.00 0.00 0.00 0.00 0.00 0.00 0.00 0.00 0.00 0.00 0.00 0.00 0.00 0.00 0.00 0.00 0.00 0.00 0.00 0.00 0.00
0.01 0.01 0.00 0.00 0.00 0.00 0.00 0.00 0.00 0.00 0.00 0.00 0.00 0.00 0.00 0.00 0.00 0.00 0.00 0.00 0.00 0.00 0.00 0.00 0.00 0.00 0.00 0.00 0.00 0.00 0.00 0.00 0.00 0.00 0.00 0.00 0.00 0.00 0.00 0.00 0.00 0.00 0.01 0.01
0.01 0.01 0.00 0.00 0.00 0.00 0.00 0.00 0.00 0.00 0.00 0.00 0.00 0.00 0.00 0.00 0.00 0.00 0.00 0.00 0.00 0.00 0.00 0.00 0.00 0.00 0.00 0.00 0.00 0.00 0.00 0.00 0.00 0.00 0.00 0.00 0.00 0.00 0.00 0.00 0.00 0.00 0.01 0.01
0.00 0.00 0.00 0.00 0.00 0.00 0.00 0.00 0.00 0.00 0.00 0.00 0.00 0.00 0.00 0.00 0.00 0.00 0.00 0.00 0.00 0.00 0.00 0.00 0.00 0.00 0.00 0.00 0.00 0.00 0.00 0.00 0.00 0.00 0.00 0.00 0.00 0.00 0.00 0.00 0.00 0.00 0.00 0.01
0.01 0.00 0.00 0.00 0.00 0.00 0.00 0.00 0.00 0.00 0.00 0.00 0.00 0.00 0.00 0.00 0.00 0.00 0.00 0.00 0.00 0.00 0.00 0.00 0.00 0.00 0.00 0.00 0.00 0.00 0.00 0.00 0.00 0.00 0.00 0.00 0.00 0.00 0.00 0.01 0.01 0.01 0.00 0.01
0.01 0.00 0.00 0.00 0.00 0.00 0.00 0.00 0.00 0.00 0.00 0.00 0.00 0.00 0.00 0.00 0.00 0.00 0.00 0.00 0.00 0.00 0.00 0.00 0.00 0.00 0.00 0.00 0.00 0.00 0.00 0.00 0.00 0.00 0.00 0.00 0.00 0.01 0.01 0.02 0.02 0.02 0.01 0.01
0.00 0.00 0.00 0.00 0.00 0.00 0.00 0.00 0.00 0.00 0.00 0.00 0.00 0.00 0.00 0.00 0.00 0.00 0.00 0.00 0.00 0.00 0.00 0.00 0.00 0.00 0.00 0.00 0.00 0.00 0.00 0.00 0.00 0.00 0.00 0.00 0.00 0.00 0.01 0.02 0.02 0.02 0.02 0.02
0.00 0.00 0.00 0.00 0.00 0.00 0.00 0.00 0.00 0.00 0.00 0.00 0.00 0.00 0.00 0.00 0.00 0.00 0.00 0.00 0.00 0.00 0.00 0.00 0.00 0.00 0.00 0.00 0.00 0.00 0.00 0.00 0.00 0.00 0.00 0.00 0.00 0.00 0.01 0.01 0.02 0.02 0.02 0.02
0.00 0.00 0.00 0.00 0.00 0.00 0.00 0.00 0.00 0.00 0.00 0.00 0.00 0.00 0.00 0.00 0.00 0.00 0.00 0.00 0.00 0.00 0.00 0.00 0.00 0.00 0.00 0.00 0.00 0.00 0.00 0.00 0.00 0.00 0.00 0.00 0.00 0.00 0.00 0.00 0.01 0.01 0.01 0.01
0.00 0.00 0.00 0.00 0.00 0.00 0.00 0.00 0.00 0.00 0.00 0.00 0.00 0.00 0.00 0.00 0.00 0.00 0.00 0.00 0.00 0.00 0.00 0.00 0.00 0.00 0.00 0.00 0.00 0.00 0.00 0.00 0.00 0.00 0.00 0.00 0.00 0.00 0.01 0.01 0.01 0.01 0.01 0.01
0.00 0.00 0.00 0.00 0.00 0.00 0.00 0.00 0.00 0.00 0.00 0.00 0.00 0.00 0.00 0.00 0.00 0.00 0.00 0.00 0.00 0.00 0.00 0.00 0.00 0.00 0.00 0.00 0.00 0.00 0.00 0.00 0.00 0.00 0.00 0.00 0.01 0.01 0.01 0.01 0.01 0.01 0.01 0.01
0.00 0.00 0.00 0.00 0.00 0.00 0.00 0.00 0.00 0.00 0.00 0.00 0.00 0.00 0.00 0.00 0.00 0.00 0.00 0.00 0.00 0.00 0.00 0.00 0.00 0.00 0.00 0.00 0.00 0.00 0.00 0.00 0.00 0.00 0.00 0.00 0.01 0.01 0.02 0.02 0.02 0.02 0.01 0.01
0.00 0.00 0.00 0.00 0.00 0.00 0.00 0.00 0.00 0.00 0.00 0.00 0.00 0.00 0.00 0.00 0.00 0.00 0.00 0.00 0.00 0.00 0.00 0.00 0.00 0.00 0.00 0.00 0.00 0.00 0.00 0.00 0.00 0.00 0.01 0.01 0.02 0.02 0.02 0.02 0.02 0.02 0.02 0.01
0.00 0.00 0.00 0.00 0.00 0.00 0.00 0.00 0.00 0.00 0.00 0.00 0.00 0.00 0.00 0.00 0.00 0.00 0.00 0.00 0.00 0.00 0.00 0.00 0.00 0.00 0.00 0.00 0.00 0.00 0.00 0.00 0.00 0.00 0.01 0.02 0.02 0.03 0.03 0.02 0.02 0.02 0.02 0.02
0.00 0.00 0.00 0.00 0.00 0.00 0.00 0.00 0.00 0.00 0.00 0.00 0.00 0.00 0.00 0.00 0.00 0.00 0.00 0.00 0.00 0.00 0.00 0.00 0.00 0.00 0.01 0.00 0.00 0.00 0.00 0.01 0.01 0.01 0.01 0.02 0.02 0.02 0.02 0.02 0.02 0.02 0.02 0.02
0.00 0.00 0.00 0.00 0.00 0.00 0.00 0.00 0.00 0.00 0.00 0.00 0.00 0.00 0.00 0.00 0.00 0.00 0.00 0.00 0.00 0.00 0.01 0.01 0.01 0.01 0.01 0.01 0.01 0.01 0.01 0.01 0.01 0.02 0.02 0.02 0.02 0.02 0.02 0.02 0.02 0.02 0.02 0.02
0.00 0.00 0.00 0.00 0.00 0.00 0.00 0.00 0.00 0.00 0.00 0.00 0.00 0.00 0.00 0.00 0.00 0.00 0.00 0.00 0.00 0.01 0.01 0.01 0.01 0.01 0.01 0.01 0.01 0.01 0.01 0.01 0.01 0.01 0.01 0.02 0.02 0.02 0.02 0.02 0.02 0.02 0.02 0.02
0.00 0.00 0.00 0.00 0.00 0.00 0.00 0.00 0.00 0.00 0.00 0.00 0.00 0.00 0.00 0.00 0.00 0.00 0.00 0.00 0.00 0.00 0.00 0.01 0.01 0.01 0.01 0.01 0.01 0.01 0.01 0.01 0.02 0.02 0.02 0.02 0.02 0.02 0.02 0.02 0.02 0.02 0.02 0.01
0.00 0.00 0.00 0.00 0.00 0.00 0.00 0.00 0.00 0.00 0.00 0.00 0.00 0.00 0.00 0.00 0.00 0.00 0.00 0.00 0.00 0.00 0.00 0.00 0.00 0.00 0.00 0.01 0.01 0.01 0.01 0.01 0.01 0.01 0.01 0.01 0.01 0.02 0.02 0.02 0.02 0.01 0.01 0.01
0.00 0.00 0.00 0.00 0.00 0.00 0.00 0.00 0.00 0.00 0.00 0.00 0.00 0.00 0.00 0.00 0.01 0.01 0.01 0.01 0.01 0.01 0.00 0.00 0.00 0.00 0.00 0.00 0.00 0.01 0.01 0.01 0.01 0.01 0.01 0.02 0.02 0.02 0.02 0.02 0.02 0.01 0.01 0.01
0.00 0.00 0.00 0.00 0.00 0.00 0.00 0.00 0.00 0.00 0.00 0.00 0.00 0.00 0.00 0.00 0.01 0.01 0.01 0.01 0.01 0.01 0.01 0.01 0.00 0.00 0.00 0.00 0.00 0.01 0.01 0.01 0.01 0.01 0.01 0.02 0.02 0.02 0.02 0.01 0.01 0.01 0.01 0.01
0.00 0.00 0.00 0.00 0.00 0.00 0.00 0.00 0.00 0.00 0.00 0.00 0.00 0.00 0.00 0.01 0.01 0.01 0.01 0.01 0.01 0.01 0.01 0.01 0.01 0.01 0.01 0.01 0.01 0.01 0.01 0.01 0.01 0.01 0.01 0.02 0.02 0.02 0.01 0.01 0.01 0.01 0.01 0.01
MSLP
1019.66 1019.51 1019.37 1019.24 1019.15 1019.07 1019.00 1018.92 1018.81 1018.66 1018.46 1018.22 1017.96 1017.71 1017.49 1017.33 1017.25 1017.26 1017.35 1017.52 1017.75 1018.00 1018.25 1018.49 1018.69 1018.85 1018.98 1019.08 1019.17 1019.26 1019.35 1019.46 1019.58 1019.72 1019.86 1020.02 1020.17 1020.33 1020.47 1020.61 1020.74 1020.85 1020.95 1021.03
1020.26 1020.02 1019.75 1019.46 1019.18 1018.93 1018.71 1018.51 1018.34 1018.18 1018.03 1017.88 1017.73 1017.60 1017.49 1017.42 1017.39 1017.42 1017.51 1017.64 1017.83 1018.03 1018.25 1018.46 1018.66 1018.83 1018.97 1019.08 1019.17 1019.24 1019.29 1019.33 1019.38 1019.42 1019.48 1019.55 1019.63 1019.73 1019.84 1019.96 1020.09 1020.22 1020.35 1020.48
1020.85 1020.53 1020.14 1019.70 1019.27 1018.86 1018.51 1018.22 1018.00 1017.84 1017.74 1017.67 1017.64 1017.62 1017.61 1017.62 1017.64 1017.69 1017.77 1017.88 1018.02 1018.19 1018.38 1018.58 1018.76 1018.94 1019.08 1019.19 1019.26 1019.29 1019.29 1019.26 1019.21 1019.17 1019.13 1019.10 1019.11 1019.15 1019.21 1019.31 1019.44 1019.58 1019.74 1019.90
1021.34 1020.94 1020.45 1019.91 1019.35 1018.84 1018.40 1018.05 1017.81 1017.68 1017.63 1017.65 1017.70 1017.78 1017.86 1017.93 1017.99 1018.05 1018.12 1018.20 1018.31 1018.45 1018.60 1018.78 1018.96 1019.12 1019.26 1019.35 1019.39 1019.38 1019.31 1019.21 1019.07 1018.93 1018.79 1018.69 1018.62 1018.59 1018.62 1018.70 1018.82 1018.97 1019.14 1019.33
1021.62 1021.17 1020.61 1020.00 1019.38 1018.82 1018.34 1017.99 1017.77 1017.67 1017.69 1017.78 1017.92 1018.07 1018.21 1018.32 1018.40 1018.46 1018.51 1018.56 1018.63 1018.73 1018.86 1019.01 1019.17 1019.32 1019.44 1019.51 1019.51 1019.45 1019.32 1019.14 1018.93 1018.71 1018.49 1018.31 1018.19 1018.12 1018.11 1018.16 1018.27 1018.42 1018.59 1018.79
1021.64 1021.15 1020.57 1019.94 1019.32 1018.76 1018.31 1017.99 1017.83 1017.80 1017.88 1018.04 1018.24 1018.44 1018.62 1018.75 1018.83 1018.87 1018.89 1018.90 1018.93 1018.99 1019.09 1019.21 1019.35 1019.47 1019.57 1019.61 1019.58 1019.47 1019.29 1019.05 1018.78 1018.50 1018.23 1018.01 1017.83 1017.73 1017.70 1017.73 1017.82 1017.95 1018.12 1018.30
1021.40 1020.90 1020.32 1019.72 1019.15 1018.65 1018.27 1018.04 1017.95 1018.00 1018.16 1018.38 1018.62 1018.85 1019.03 1019.15 1019.22 1019.22 1019.20 1019.18 1019.17 1019.19 1019.25 1019.34 1019.45 1019.55 1019.61 1019.62 1019.56 1019.42 1019.20 1018.93 1018.62 1018.31 1018.01 1017.76 1017.57 1017.45 1017.40 1017.41 1017.47 1017.58 1017.71 1017.86
1020.94 1020.45 1019.92 1019.39 1018.90 1018.51 1018.24 1018.11 1018.13 1018.26 1018.48 1018.74 1019.01 1019.25 1019.42 1019.51 1019.54 1019.50 1019.43 1019.36 1019.31 1019.29 1019.32 1019.37 1019.45 1019.52 1019.56 1019.54 1019.46 1019.29 1019.06 1018.77 1018.45 1018.13 1017.83 1017.57 1017.38 1017.25 1017.18 1017.17 1017.20 1017.27 1017.36 1017.46
1020.38 1019.92 1019.46 1019.02 1018.65 1018.38 1018.24 1018.23 1018.34 1018.55 1018.82 1019.12 1019.39 1019.61 1019.74 1019.80 1019.78 1019.70 1019.58 1019.46 1019.37 1019.31 1019.30 1019.32 1019.37 1019.41 1019.42 1019.38 1019.27 1019.10 1018.86 1018.57 1018.26 1017.94 1017.66 1017.41 1017.22 1017.09 1017.01 1016.98 1016.97 1016.99 1017.02 1017.06
1019.83 1019.42 1019.04 1018.71 1018.47 1018.33 1018.31 1018.41 1018.60 1018.87 1019.18 1019.48 1019.73 1019.92 1020.02 1020.02 1019.95 1019.82 1019.66 1019.50 1019.37 1019.27 1019.22 1019.21 1019.22 1019.22 1019.21 1019.14 1019.02 1018.84 1018.60 1018.32 1018.03 1017.74 1017.47 1017.25 1017.07 1016.93 1016.84 1016.77 1016.73 1016.70 1016.67 1016.65
1019.39 1019.04 1018.75 1018.53 1018.41 1018.39 1018.48 1018.66 1018.92 1019.22 1019.53 1019.81 1020.04 1020.18 1020.23 1020.19 1020.08 1019.91 1019.71 1019.51 1019.34 1019.21 1019.12 1019.07 1019.04 1019.00 1018.95 1018.86 1018.72 1018.53 1018.29 1018.03 1017.76 1017.49 1017.25 1017.04 1016.86 1016.72 1016.61 1016.51 1016.43 1016.34 1016.27 1016.20
1019.11 1018.85 1018.65 1018.53 1018.51 1018.59 1018.75 1018.98 1019.27 1019.57 1019.86 1020.12 1020.30 1020.40 1020.40 1020.32 1020.16 1019.96 1019.74 1019.52 1019.32 1019.15 1019.02 1018.92 1018.84 1018.76 1018.66 1018.54 1018.37 1018.17 1017.94 1017.68 1017.42 1017.18 1016.95 1016.75 1016.58 1016.43 1016.29 1016.17 1016.04 1015.92 1015.79 1015.68
1019.01 1018.82 1018.71 1018.68 1018.74 1018.88 1019.08 1019.34 1019.62 1019.90 1020.15 1020.36 1020.49 1020.54 1020.51 1020.39 1020.22 1020.00 1019.76 1019.51 1019.29 1019.09 1018.92 1018.77 1018.64 1018.50 1018.35 1018.18 1017.98 1017.76 1017.52 1017.27 1017.03 1016.79 1016.58 1016.38 1016.20 1016.04 1015.88 1015.72 1015.56 1015.40 1015.25 1015.12
1019.03 1018.92 1018.89 1018.93 1019.04 1019.21 1019.42 1019.67 1019.92 1020.15 1020.36 1020.51 1020.59 1020.59 1020.53 1020.39 1020.20 1019.98 1019.73 1019.48 1019.23 1019.00 1018.79 1018.59 1018.39 1018.20 1018.00 1017.78 1017.54 1017.30 1017.05 1016.80 1016.56 1016.33 1016.12 1015.92 1015.73 1015.55 1015.37 1015.18 1015.00 1014.82 1014.65 1014.50
1019.10 1019.07 1019.10 1019.20 1019.34 1019.51 1019.71 1019.92 1020.12 1020.29 1020.43 1020.52 1020.55 1020.52 1020.43 1020.28 1020.09 1019.86 1019.62 1019.36 1019.09 1018.83 1018.58 1018.33 1018.07 1017.82 1017.56 1017.30 1017.03 1016.77 1016.51 1016.26 1016.02 1015.79 1015.58 1015.38 1015.19 1014.99 1014.79 1014.59 1014.38 1014.18 1014.00 1013.86
1019.17 1019.21 1019.30 1019.42 1019.57 1019.73 1019.89 1020.04 1020.17 1020.28 1020.34 1020.37 1020.36 1020.29 1020.18 1020.03 1019.84 1019.62 1019.37 1019.10 1018.82 1018.53 1018.24 1017.94 1017.63 1017.33 1017.02 1016.72 1016.43 1016.15 1015.88 1015.63 1015.40 1015.19 1014.98 1014.78 1014.58 1014.38 1014.16 1013.94 1013.72 1013.52 1013.34 1013.19
1019.20 1019.30 1019.42 1019.56 1019.70 1019.83 1019.93 1020.02 1020.07 1020.10 1020.09 1020.06 1019.99 1019.90 1019.77 1019.61 1019.42 1019.19 1018.95 1018.67 1018.37 1018.06 1017.72 1017.38 1017.03 1016.69 1016.35 1016.02 1015.71 1015.43 1015.17 1014.94 1014.72 1014.52 1014.33 1014.13 1013.93 1013.72 1013.50 1013.27 1013.05 1012.83 1012.65 1012.51
1019.19 1019.33 1019.48 1019.61 1019.72 1019.80 1019.84 1019.85 1019.82 1019.77 1019.69 1019.60 1019.48 1019.35 1019.20 1019.02 1018.83 1018.60 1018.34 1018.05 1017.73 1017.38 1017.02 1016.64 1016.26 1015.89 1015.53 1015.19 1014.89 1014.61 1014.37 1014.16 1013.97 1013.79 1013.62 1013.43 1013.24 1013.03 1012.81 1012.58 1012.35 1012.13 1011.95 1011.81
1019.17 1019.33 1019.47 1019.58 1019.65 1019.66 1019.63 1019.56 1019.45 1019.32 1019.17 1019.01 1018.85 1018.67 1018.49 1018.30 1018.08 1017.84 1017.56 1017.25 1016.91 1016.54 1016.14 1015.74 1015.34 1014.95 1014.58 1014.25 1013.96 1013.71 1013.50 1013.31 1013.15 1013.00 1012.85 1012.68 1012.50 1012.29 1012.07 1011.84 1011.61 1011.39 1011.21 1011.07
1019.15 1019.31 1019.42 1019.49 1019.49 1019.44 1019.33 1019.17 1018.98 1018.78 1018.56 1018.34 1018.13 1017.91 1017.70 1017.47 1017.23 1016.96 1016.66 1016.33 1015.96 1015.56 1015.15 1014.73 1014.31 1013.92 1013.56 1013.24 1012.97 1012.74 1012.56 1012.41 1012.28 1012.15 1012.02 1011.87 1011.69 1011.49 1011.27 1011.04 1010.81 1010.59 1010.41 1010.27
1019.13 1019.25 1019.32 1019.33 1019.26 1019.13 1018.94 1018.70 1018.44 1018.16 1017.88 1017.61 1017.35 1017.10 1016.85 1016.59 1016.32 1016.03 1015.71 1015.34 1014.95 1014.54 1014.11 1013.67 1013.25 1012.86 1012.51 1012.21 1011.96 1011.76 1011.60 1011.47 1011.36 1011.25 1011.13 1010.99 1010.82 1010.62 1010.40 1010.17 1009.94 1009.72 1009.54 1009.40
1019.06 1019.13 1019.13 1019.06 1018.91 1018.70 1018.43 1018.13 1017.80 1017.46 1017.13 1016.82 1016.52 1016.24 1015.96 1015.68 1015.39 1015.07 1014.73 1014.35 1013.95 1013.52 1013.08 1012.64 1012.22 1011.84 1011.50 1011.21 1010.98 1010.79 1010.65 1010.53 1010.42 1010.32 1010.20 1010.05 1009.88 1009.68 1009.46 1009.23 1009.00 1008.79 1008.62 1008.49
1018.89 1018.87 1018.79 1018.63 1018.41 1018.12 1017.78 1017.41 1017.03 1016.65 1016.29 1015.95 1015.63 1015.33 1015.04 1014.75 1014.45 1014.12 1013.77 1013.39 1012.98 1012.55 1012.11 1011.68 1011.27 1010.89 1010.56 1010.28 1010.06 1009.87 1009.73 1009.60 1009.49 1009.37 1009.24 1009.08 1008.90 1008.69 1008.47 1008.24 1008.01 1007.81 1007.65 1007.54
1018.53 1018.42 1018.25 1018.00 1017.69 1017.33 1016.93 1016.52 1016.10 1015.70 1015.32 1014.97 1014.65 1014.35 1014.07 1013.78 1013.49 1013.17 1012.83 1012.45 1012.05 1011.64 1011.22 1010.80 1010.40 1010.04 1009.72 1009.44 1009.21 1009.02 1008.86 1008.72 1008.58 1008.44 1008.28 1008.10 1007.90 1007.68 1007.45 1007.22 1007.01 1006.83 1006.68 1006.59
1017.94 1017.73 1017.46 1017.13 1016.74 1016.32 1015.88 1015.43 1015.00 1014.59 1014.22 1013.88 1013.57 1013.29 1013.03 1012.76 1012.49 1012.19 1011.88 1011.53 1011.16 1010.77 1010.38 1009.98 1009.61 1009.26 1008.95 1008.67 1008.44 1008.23 1008.05 1007.88 1007.71 1007.54 1007.35 1007.15 1006.93 1006.70 1006.46 1006.24 1006.04 1005.87 1005.76 1005.70
1017.11 1016.81 1016.45 1016.04 1015.59 1015.12 1014.65 1014.18 1013.75 1013.34 1012.98 1012.67 1012.39 1012.14 1011.90 1011.67 1011.43 1011.18 1010.90 1010.59 1010.26 1009.91 1009.55 1009.19 1008.85 1008.52 1008.22 1007.95 1007.71 1007.49 1007.28 1007.09 1006.89 1006.69 1006.47 1006.24 1006.01 1005.77 1005.54 1005.32 1005.15 1005.00 1004.92 1004.90
1016.10 1015.71 1015.27 1014.80 1014.30 1013.80 1013.31 1012.84 1012.41 1012.02 1011.68 1011.39 1011.14 1010.92 1010.71 1010.52 1010.31 1010.10 1009.86 1009.59 1009.31 1009.00 1008.69 1008.38 1008.07 1007.77 1007.49 1007.24 1006.99 1006.77 1006.55 1006.34 1006.12 1005.89 1005.66 1005.42 1005.17 1004.94 1004.72 1004.52 1004.37 1004.26 1004.21 1004.23
Thickness
5523 5527 5527 5528 5529 5527 5522 5519 5516 5523 5523 5536 5539 5539 5540 5541 5541 5540 5540 5539 5538 5535 5533 5532 5531 5530 5530 5529 5528 5526 5523 5521 5520 5519 5516 5514 5511 5509 5507 5505 5503 5501 5499 5497
5518 5526 5524 5524 5528 5527 5526 5525 5523 5525 5529 5538 5536 5535 5535 5535 5535 5534 5533 5533 5532 5531 5529 5527 5526 5525 5524 5523 5522 5520 5517 5515 5514 5511 5508 5506 5504 5501 5499 5496 5494 5491 5489 5486
5508 5512 5518 5523 5535 5530 5527 5528 5527 5526 5533 5535 5534 5533 5532 5530 5529 5527 5526 5526 5526 5524 5522 5522 5521 5520 5518 5518 5515 5513 5511 5509 5507 5504 5501 5499 5496 5493 5490 5487 5484 5481 5478 5476
5497 5504 5513 5540 5545 5537 5531 5531 5529 5531 5532 5531 5530 5528 5526 5524 5522 5521 5520 5520 5519 5517 5516 5516 5515 5514 5512 5510 5508 5506 5504 5501 5499 5496 5494 5491 5487 5484 5481 5478 5475 5472 5469 5466
5490 5490 5505 5529 5537 5533 5527 5528 5529 5526 5526 5523 5520 5518 5515 5517 5516 5514 5513 5512 5510 5509 5509 5508 5507 5506 5504 5502 5500 5498 5496 5494 5492 5489 5486 5482 5479 5476 5472 5469 5466 5463 5460 5457
5483 5491 5511 5533 5535 5530 5526 5519 5525 5521 5518 5515 5511 5503 5506 5511 5508 5507 5506 5503 5502 5501 5500 5499 5498 5496 5494 5493 5490 5489 5488 5487 5484 5481 5477 5474 5471 5467 5464 5460 5458 5454 5451 5448
5475 5480 5498 5518 5522 5520 5511 5517 5518 5514 5510 5506 5501 5500 5502 5501 5499 5498 5497 5495 5494 5492 5490 5489 5489 5487 5485 5483 5481 5481 5480 5477 5475 5472 5468 5465 5461 5458 5454 5451 5447 5444 5442 5439
5469 5470 5493 5515 5508 5506 5509 5509 5507 5505 5502 5498 5495 5494 5492 5491 5489 5488 5486 5486 5485 5482 5481 5480 5478 5476 5475 5474 5473 5471 5469 5466 5464 5461 5458 5455 5451 5447 5444 5440 5436 5434 5431 5428
5484 5499 5507 5504 5503 5503 5499 5497 5497 5493 5492 5489 5486 5484 5483 5481 5479 5477 5476 5475 5474 5472 5471 5469 5467 5465 5464 5464 5463 5460 5457 5455 5453 5450 5447 5444 5441 5437 5433 5429 5426 5424 5421 5419
5476 5489 5493 5493 5490 5490 5489 5487 5486 5484 5481 5479 5476 5474 5471 5469 5468 5467 5466 5464 5463 5461 5459 5459 5457 5455 5454 5453 5451 5448 5446 5443 5441 5438 5436 5433 5430 5427 5424 5420 5417 5415 5412 5411
5472 5480 5481 5484 5482 5481 5479 5476 5474 5472 5470 5468 5465 5463 5461 5459 5458 5457 5456 5454 5452 5450 5449 5448 5447 5445 5444 5442 5440 5437 5434 5432 5430 5427 5425 5422 5420 5417 5416 5414 5411 5408 5406 5403
5474 5475 5471 5474 5474 5472 5469 5467 5464 5462 5459 5457 5455 5452 5451 5449 5448 5446 5445 5444 5442 5440 5438 5438 5436 5435 5434 5432 5429 5426 5424 5422 5419 5416 5414 5411 5409 5407 5407 5405 5404 5401 5399 5395
5469 5468 5463 5464 5462 5460 5457 5455 5453 5451 5449 5446 5444 5442 5440 5439 5437 5436 5434 5433 5431 5430 5428 5427 5425 5424 5423 5421 5419 5416 5414 5412 5409 5406 5404 5401 5398 5397 5395 5394 5393 5392 5389 5387
5454 5451 5449 5450 5448 5447 5444 5443 5441 5439 5437 5434 5433 5431 5428 5427 5426 5424 5423 5422 5420 5418 5417 5416 5414 5414 5413 5411 5408 5406 5404 5402 5400 5397 5394 5391 5389 5387 5385 5383 5382 5380 5380 5378
5441 5438 5438 5438 5435 5433 5431 5429 5426 5424 5424 5422 5421 5419 5417 5415 5414 5413 5412 5411 5409 5407 5406 5405 5403 5404 5403 5400 5397 5395 5393 5391 5389 5387 5384 5382 5380 5377 5375 5373 5372 5371 5369 5367
5429 5427 5425 5423 5422 5421 5418 5416 5414 5413 5411 5411 5408 5407 5405 5404 5402 5402 5401 5399 5397 5397 5396 5394 5394 5394 5392 5390 5387 5385 5384 5383 5380 5377 5375 5372 5370 5368 5366 5364 5363 5361 5360 5358
5414 5414 5412 5411 5410 5409 5407 5405 5403 5401 5399 5398 5397 5396 5393 5391 5390 5390 5389 5388 5386 5386 5385 5384 5384 5384 5382 5380 5378 5376 5375 5373 5372 5369 5366 5364 5362 5361 5359 5357 5355 5354 5353 5351
5407 5407 5405 5402 5399 5397 5395 5394 5391 5389 5387 5387 5385 5383 5381 5380 5379 5379 5379 5377 5376 5376 5377 5376 5375 5374 5373 5371 5369 5367 5366 5364 5363 5361 5359 5357 5355 5354 5352 5350 5348 5347 5346 5344
5395 5394 5392 5391 5389 5386 5384 5382 5380 5378 5377 5375 5373 5372 5370 5369 5368 5368 5367 5365 5364 5365 5370 5369 5368 5366 5364 5363 5361 5359 5357 5356 5355 5353 5351 5350 5349 5346 5345 5343 5342 5340 5339 5337
5382 5381 5380 5379 5377 5374 5372 5371 5368 5366 5365 5362 5361 5360 5359 5359 5358 5357 5356 5355 5357 5358 5360 5359 5358 5357 5356 5355 5354 5351 5349 5348 5347 5345 5344 5342 5341 5339 5338 5336 5335 5334 5332 5331
5367 5367 5366 5364 5363 5362 5360 5359 5356 5355 5354 5351 5349 5349 5349 5350 5348 5346 5345 5348 5353 5351 5349 5350 5348 5348 5347 5346 5346 5343 5342 5341 5339 5338 5337 5336 5334 5333 5332 5330 5329 5328 5327 5325
5353 5352 5352 5350 5349 5349 5349 5347 5345 5343 5342 5340 5339 5338 5337 5338 5338 5337 5337 5338 5342 5342 5340 5340 5339 5338 5338 5339 5337 5336 5334 5333 5332 5331 5330 5329 5328 5327 5326 5325 5324 5322 5321 5319
5341 5340 5339 5338 5337 5337 5337 5335 5333 5332 5330 5330 5330 5329 5329 5329 5328 5327 5331 5333 5331 5332 5331 5331 5331 5331 5331 5330 5329 5328 5327 5326 5325 5325 5324 5323 5322 5321 5320 5319 5318 5317 5315 5313
5328 5328 5327 5327 5324 5323 5323 5325 5323 5322 5321 5321 5321 5321 5319 5319 5320 5321 5321 5323 5324 5324 5323 5323 5324 5324 5324 5322 5321 5321 5320 5320 5319 5318 5317 5317 5316 5315 5314 5313 5312 5311 5309 5308
5317 5316 5315 5313 5312 5314 5315 5314 5313 5312 5312 5312 5314 5314 5312 5311 5311 5314 5313 5313 5314 5315 5314 5315 5316 5316 5316 5315 5314 5314 5313 5313 5312 5311 5311 5310 5309 5309 5308 5307 5306 5305 5304 5302
5307 5307 5308 5307 5306 5307 5306 5304 5303 5305 5304 5305 5307 5308 5306 5305 5304 5304 5304 5304 5305 5306 5306 5307 5307 5307 5307 5307 5307 5307 5307 5307 5306 5306 5305 5304 5303 5303 5302 5302 5300 5300 5299 5297
5298 5298 5298 5298 5300 5298 5296 5295 5295 5296 5297 5296 5298 5301 5300 5299 5297 5296 5296 5296 5297 5297 5298 5299 5299 5299 5299 5300 5301 5301 5301 5300 5300 5300 5299 5298 5298 5297 5297 5296 5296 5295 5294 5292